CST,Max TemperatureF,Mean TemperatureF,Min TemperatureF,Max Dew PointF,MeanDew PointF,Min DewpointF,Max Humidity, Mean Humidity, Min Humidity, Max Sea Level PressureIn, Mean Sea Level PressureIn, Min Sea Level PressureIn, Max VisibilityMiles, Mean VisibilityMiles, Min VisibilityMiles, Max Wind SpeedMPH, Mean Wind SpeedMPH, Max Gust SpeedMPH,PrecipitationIn, CloudCover, Events, WindDirDegrees
2013-1-1,15,9,3,9,2,-2,85,74,62,30.30,30.24,30.19,10,10,10,13,8,,0.00,1,,323
2013-1-2,26,14,1,19,10,-2,86,75,63,30.22,30.13,30.07,10,10,7,16,6,,0.00,2,,208
2013-1-3,28,18,8,23,14,3,86,76,68,30.35,30.25,30.12,10,9,5,22,14,24,0.00,6,,280
2013-1-4,33,20,8,23,15,3,86,77,64,30.30,30.24,30.19,10,10,9,18,10,24,0.00,0,,244
2013-1-5,35,26,17,30,24,12,93,83,70,30.23,30.10,29.96,10,8,5,23,9,29,0.00,4,,208
2013-1-6,26,19,12,19,13,7,86,77,68,30.33,30.20,29.98,10,9,5,22,15,28,0.00,2,,279
2013-1-7,39,27,15,25,19,10,86,72,56,30.31,30.18,30.08,10,10,9,20,9,24,0.00,0,,186
2013-1-8,41,32,24,30,26,19,86,73,65,30.12,30.06,29.99,10,10,6,17,8,22,0.00,1,,176
2013-1-9,39,32,26,30,27,21,93,78,65,30.51,30.32,30.03,10,10,7,20,11,26,0.00,0,,262
2013-1-10,39,30,21,36,27,18,93,80,61,30.50,30.22,29.83,10,8,1,21,9,25,0.54,3,,106
2013-1-11,51,43,35,46,41,34,93,87,71,29.81,29.70,29.62,10,5,0,22,10,26,0.02,5,,176
2013-1-12,51,35,19,43,25,16,86,74,64,30.06,29.92,29.65,10,9,1,30,18,39,0.00,2,,282
2013-1-13,21,14,8,16,7,1,86,70,58,30.29,30.12,29.96,10,10,6,22,14,25,0.00,4,,300
2013-1-14,24,14,3,10,5,0,92,71,50,30.49,30.43,30.30,10,10,10,9,5,,0.00,0,,262
2013-1-15,28,16,5,14,8,0,85,70,51,30.44,30.33,30.15,10,10,8,8,2,,0.00,0,,183
2013-1-16,35,22,10,28,18,5,87,73,56,30.13,29.99,29.87,10,10,10,22,9,26,0.00,3,,235
2013-1-17,33,24,15,28,15,9,86,68,44,30.43,30.36,30.13,10,10,10,15,10,,0.00,1,,314
2013-1-18,46,34,21,30,24,14,80,64,50,30.43,30.13,29.91,10,10,10,25,11,32,0.00,1,,203
2013-1-19,50,34,19,34,27,7,75,65,47,30.12,29.89,29.78,10,10,10,37,16,48,0.00,0,,255
2013-1-20,19,14,8,7,3,0,79,62,49,30.38,30.30,30.12,10,10,10,30,18,37,0.00,2,,305
2013-1-21,12,6,1,3,-5,-11,78,60,44,30.33,30.28,30.22,10,10,3,26,18,31,0.00,1,,296
2013-1-22,12,5,-2,1,-8,-20,78,54,29,30.42,30.37,30.32,10,10,10,17,10,22,0.00,2,,293
2013-1-23,26,18,8,10,4,-2,73,56,46,30.44,30.25,30.13,10,10,5,26,9,31,0.00,5,,266
2013-1-24,21,12,3,7,-2,-8,67,54,39,30.67,30.52,30.30,10,10,10,16,10,17,0.00,0,,78
2013-1-25,35,25,14,18,11,3,80,60,38,30.28,30.13,30.00,10,10,9,26,14,33,0.00,2,,261
2013-1-26,26,14,3,12,6,0,85,61,43,30.42,30.35,30.26,10,10,10,15,7,20,0.00,2,,126
2013-1-27,37,32,26,36,23,12,93,75,55,30.32,30.09,29.84,10,6,1,25,12,30,0.25,6,,145
2013-1-28,46,40,35,43,38,34,93,89,81,29.97,29.87,29.70,10,3,0,20,10,26,0.19,8,Thunderstorm,155
2013-1-29,60,48,35,55,46,32,94,88,77,29.70,29.57,29.47,10,6,0,21,13,30,0.70,5,Thunderstorm,253
2013-1-30,35,25,14,32,22,7,87,81,68,29.76,29.49,29.33,10,5,1,28,17,37,0.30,7,,335
2013-1-31,15,8,0,10,0,-8,79,71,61,30.28,29.98,29.76,10,9,2,26,21,33,0.00,5,,295